Location: Barcelona
(41.3829°N, 2.1774°E)
Time: 17:32:18
(UTC+00:00)

ISS - Pass Details

Date: 09 May 2026
Orbit: 414 x 424 km, 51.6° (Epoch: 17 May)

Event Time Altitude Azimuth Distance (km) Brightness Sun altitude
Exits shadow 02:57:12 15° 297° (WNW) 1,246 -1.6 -16.7°
Maximum altitude 02:59:53 60° 220° (SW) 481 -3.8 -16.4°
Drops below altitude 10° 03:03:12 10° 139° (SE) 1,494 -1.0 -15.9°
Sets 03:05:18 0° 135° (SE) 2,356 0.1 -15.6°
